sat.trackr.live / text

‹ back to catalog

H2SAT (HEINRICH HERTZ)

NORAD 57213 · 2023-093A

PAYLOAD ACTIVE UNKNOWN

§ Identity

Operator
Country
GER
Launch date
2023-07-05
Launch site
FRGUI
Launch vehicle
Mass (kg)
RCS (m²)

Purposes: comms

External: N2YO · Heavens-Above · Gunter

§ Orbital elements

Epoch: 2026-09-19T00:05:21.005376Z

Period
1,436.12 min
Inclination
0.0222°
Eccentricity
0.0000153
Mean motion
1.00270046 rev/d
Perigee alt
35,786.4 km
Apogee alt
35,787.7 km
Semi-major
42,165.2 km
B*
0.0000e+0
RAAN
55.8292°
Arg perigee
24.8069°
Mean anomaly
279.3656°
Rev number
1,185

§ Raw data

H2SAT (HEINRICH HERTZ)1 57213U 23093A   26262.00371534  .00000000  00000+0  00000+0 0  99942 57213   0.0222  55.8292 0000153  24.8069 279.3656  1.00270046 11858

JSON: /api/v1/satellites/57213 · /tle

For live sub-satellite position, see the globe view (requires WebGL).

§ Visibility from observer

Set your observer location to see the next 7 days of passes ≥ 10°. The values pass through the URL so the page stays shareable.

No JS? Fill the form by hand. The geolocation button needs JavaScript.

§ Radio — SatNOGS DB

ModeDescriptionDownlinkUplink
FM Mode S - Center 2.286 GHz

1 transmitter · refreshed weekly from db.satnogs.org